Regional Weather Roundup
Issued by NWS Bismarck, ND

Home | Current Version | Previous Version | Text Only | Print | Product List | Glossary On
Versions: 1 2 3 4 5 6 7 8 9 10 11 12 13 14 15 16 17 18 19 20 21 22 23 24 25 26 27 28 29 30 31 32 33 34 35 36 37 38 39 40 41 42 43 44 45 46 47 48 49 50
000
ASUS43 KBIS 030310
RWRBIS

NWR BROADCAST TEXT
NATIONAL WEATHER SERVICE BISMARCK ND
1000 PM CDT SAT MAY 02 2015

NOTE: "FAIR" INDICATES FEW OR NO CLOUDS BELOW 12,000 FEET WITH NO
SIGNIFICANT WEATHER AND/OR OBSTRUCTIONS TO VISIBILITY.


CITY           SKY/WX    TMP DP  RH WIND       PRES   REMARKS
WILLISTON      MOCLDY    60  35  39 N18       29.76R
MINOT          PTCLDY    59  34  39 NW13      29.68R
MINOT AFB      PTCLDY    60  36  40 NW12      29.68R
BISMARCK       PTCLDY    69  31  24 N6        29.66R
DICKINSON      PTCLDY    60  28  29 NW6       29.70R
GARRISON         N/A     55  36  48 N8        29.68R
HETTINGER ARPT PTCLDY    54  29  38 NW6       29.72R
JAMESTOWN      MOCLDY    67  36  31 N8        29.63R
BEACH          MOCLDY    57  32  38 NW7       29.76R
CARRINGTON     FAIR      59  34  38 NW10      29.65R
CROSBY         FAIR      50  34  53 NW9       29.79R
HARVEY         FAIR      59  37  44 NW10      29.66R
HAZEN          FAIR      48  34  57 SE3       29.69R
LINTON         FAIR      57  36  44 CALM      29.67R
MANDAN         FAIR      63  34  34 N7        29.69R
OAKES            N/A     66  50  55 W7        29.63R
WATFORD CITY   FAIR      59  36  41 N7        29.74R
$$

CITY           SKY/WX    TMP DP  RH WIND       PRES   REMARKS
GRAND FORKS    PTCLDY    58  46  64 S5        29.58R
GRAND FORKS AF CLEAR     59  46  63 SW5       29.59R
DEVILS LAKE    PTCLDY    64  39  39 N12       29.63R
FARGO          MOCLDY    66  50  56 SE16G24   29.59R
CANDO          FAIR      63  36  36 N12       29.65R
CAVALIER       FAIR      66  45  45 NW7       29.60R
GRAFTON        FAIR      64  46  52 SW10G16   29.60R
LANGDON        FAIR      61  36  39 N10       29.66R
WALHALLA       FAIR      64  36  34 N13       29.62R
$$

CITY           SKY/WX    TMP DP  RH WIND       PRES   REMARKS
ABERDEEN       CLOUDY    71  50  47 SW9       29.65R
MOBRIDGE       MOCLDY    64  31  28 N10       29.64R
BUFFALO          N/A     63  29  27 NE13      29.68R
RAPID CITY     PTCLDY    59  30  33 N9        29.74R
GLASGOW        PTCLDY    52  34  50 N6        29.84R
SIDNEY         CLOUDY    63  34  34 N13       29.77R
WOLF POINT     PTCLDY    56  35  45 N17       29.79R
GLENDIVE       CLOUDY    63  36  36 N16       29.77R
MILES CITY     CLOUDY    67  33  28 NE16G24   29.74R
BAKER          CLOUDY    63  33  32 N9        29.75R
$$

CITY           SKY/WX    TMP DP  RH WIND       PRES   REMARKS
BILLINGS       CLOUDY    64  30  27 NE5       29.79R
GREAT FALLS    PTCLDY    50  31  48 NE14      29.89R
REGINA         PTCLDY    45  37  76 W12       29.80R
ESTEVAN        PTCLDY    52  36  54 NW10      29.77R
$$




USA.gov is the U.S. government's official web portal to all federal, state and local government web resources and services.